Flag for U.S.A. Weather past 2 weeks in Burbank, California, U.S.A.

Now
61 °F

Clear.


Feels Like: 61 °F
Forecast: 57 / 76 °F
Wind: No wind

Location: Burbank-Glendale-Pasadena Airport


UV Index: 5 (Moderate)

Visibility: 10 mi


Pressure: 29.90 "Hg

Humidity: 65%

Dew point: 49 °F

Location of BurbankLocation

Historic Weather in Burbank

°F

Burbank temperature yesterday

Maximum temperature yesterday: 70 °F (at 1:53 PM)
Minimum temperature yesterday: 56 °F (at 2:53 AM)
Average temperature yesterday: 62 °F

Past Weeks' High & Low Weather Summary

 TemperatureHumidityPressure
High91 °F (Apr 9, 2:53 PM)90% (Apr 18, 6:53 AM)30.08 "Hg (Apr 18, 6:53 AM)
Low49 °F (Apr 4, 4:53 AM)5% (Apr 9, 12:53 PM)29.74 "Hg (Apr 16, 4:53 PM)
Average65 °F48%29.93 "Hg
* Reported Apr 3 9:53 PM — Apr 18 9:53 PM, Burbank, Weather by CustomWeather, © 2014

Note: Actual official high and low records may vary slightly from our data, if they occured in-between our weather recording intervals... More about our weather records

Advertising

Historic Weather Conditions — Data for Previous 24 hours

 ConditionsComfort  
Time TempWeatherWind HumidityBarometerVisibility
9:53 PM
Apr 18
62 °FClear.3 mph62%29.90 "Hg10 mi
8:53 PM63 °FClear.5 mph60%29.88 "Hg10 mi
7:53 PM64 °FSunny.7 mph58%29.86 "Hg10 mi
6:53 PM66 °FSunny.7 mph56%29.85 "Hg10 mi
5:53 PM67 °FSunny.8 mph55%29.84 "Hg10 mi
4:53 PM67 °FSunny.8 mph55%29.84 "Hg10 mi
3:53 PM69 °FSunny.10 mph51%29.83 "Hg10 mi
2:53 PM70 °FSunny.12 mph51%29.84 "Hg10 mi
1:53 PM70 °FPassing clouds.8 mph47%29.86 "Hg10 mi
12:53 PM67 °FPassing clouds.8 mph53%29.88 "Hg10 mi
11:53 AM66 °FScattered clouds.7 mph54%29.89 "Hg10 mi
10:53 AM64 °FPartly sunny.No wind61%29.89 "Hg10 mi
9:53 AM62 °FMore clouds than sun.No wind67%29.90 "Hg10 mi
8:53 AM59 °FMore clouds than sun.No wind81%29.89 "Hg6 mi
7:53 AM57 °FFog.No wind87%29.89 "Hg4 mi
6:53 AM56 °FLight rain. Mostly cloudy.5 mph90%29.86 "Hg3 mi
5:53 AM58 °FOvercast.5 mph84%29.85 "Hg8 mi
4:53 AM59 °FOvercast.6 mph78%29.84 "Hg10 mi
3:53 AM59 °FOvercast.5 mph78%29.83 "Hg10 mi
2:53 AM59 °FOvercast.8 mph78%29.83 "Hg10 mi
1:53 AM59 °FPassing clouds.6 mph78%29.85 "Hg10 mi
12:53 AM59 °FPassing clouds.No wind78%29.87 "Hg10 mi
11:53 PM
Apr 17
59 °FMostly cloudy.6 mph81%29.87 "Hg10 mi
Weather by CustomWeather, © 2014

See weather overview